Tracking 25709 objects as of 23-May-2022
HD Live streaming from Space Station
objects crossing your sky now

CZ-2C DEB

Track CZ-2C DEB now!
10-day predictions


NORAD ID: 37770
Int'l Code: 2011-039F
Perigee: 635.4 km
Apogee: 767.1 km
Inclination: 97.9 °
Period: 98.6 minutes
Semi major axis: 7072 km
RCS: 0.0832 m2 (small)
Launch date: July 29, 2011
Source: People's Republic of China (PRC)
Launch site: Jiuquan Satellite Launch Center, China (JSC)

Note: This is SATELLITE DEBRIS
aabbcc
Your satellite tracking list
Your tracking list is empty




NASA's NSSDC Master Catalog

Two Line Element Set (TLE):
1 37770U 11039F   22142.80814837  .00005985  00000-0  11897-2 0  9993
2 37770  97.9042  79.0126 0093117 134.1855 281.1225 14.59713624573862
Source of the keplerian elements: AFSPC